D8954 Weather Reports


Display with metric or nautical units.
time (UTC)temp
F
wind
direction
speed
MPH
gust
MPH
rain 1hr
in
rain 24hr
in
rain mn
in
humidity
%
barometer
mb
20260503052004 53 283 2.0 3.0 0.02 0.02 0.02 81 1014.3
20260503051504 54 5 2.0 7.0 0.02 0.02 0.02 79 1014.5
20260503050005 55 269 1.0 2.0 0.00 0.00 0.00 69 1014.6
20260503044504 53 271 1.0 1.0 0.00 0.00 0.00 71 1014.4
20260503044008 53 271 0.0 1.0 0.00 0.00 0.00 71 1014.3
20260503043505 54 271 1.0 2.0 0.00 0.00 0.00 70 1014.3
20260503043005 54 271 2.0 2.0 0.00 0.00 0.00 69 1014.4
20260503042507 54 271 1.0 1.0 0.00 0.00 0.00 69 1014.3
20260503041004 53 271 0.0 2.0 0.00 0.00 0.00 69 1014.3
20260503040504 53 271 1.0 2.0 0.00 0.00 0.00 69 1014.4
20260503040004 53 271 2.0 3.0 0.00 0.00 0.00 69 1014.4
20260503035504 53 271 2.0 2.0 0.00 0.00 0.00 68 1014.4
20260503035004 53 271 2.0 2.0 0.00 0.00 0.00 68 1014.4
20260503034504 54 271 2.0 2.0 0.00 0.00 0.00 68 1014.5
20260503034004 55 271 2.0 3.0 0.00 0.00 0.00 66 1014.5
20260503033504 54 272 2.0 2.0 0.00 0.00 0.00 65 1014.5
20260503033005 53 272 1.0 2.0 0.00 0.00 0.00 66 1014.6
20260503031504 52 272 0.0 2.0 0.00 0.00 0.00 68 1014.5
20260503031004 53 273 2.0 3.0 0.00 0.00 0.00 66 1014.5
20260503030504 52 269 2.0 3.0 0.00 0.00 0.00 67 1014.7
20260503030004 53 269 2.0 2.0 0.00 0.00 0.00 66 1014.7
20260503025504 53 269 2.0 2.0 0.00 0.00 0.00 66 1014.7
20260503025004 52 270 0.0 0.0 0.00 0.00 0.00 66 1014.6
20260503024504 52 270 0.0 0.0 0.00 0.00 0.00 67 1014.7
20260503024004 52 270 1.0 2.0 0.00 0.00 0.00 66 1014.8
20260503022504 52 270 0.0 2.0 0.00 0.00 0.00 67 1014.9
20260503022004 53 270 3.0 3.0 0.00 0.00 0.00 65 1014.8
20260503021504 53 269 1.0 2.0 0.00 0.00 0.00 65 1014.9
20260503020004 52 249 1.0 2.0 0.00 0.00 0.00 66 1014.9
20260503015504 52 257 0.0 2.0 0.00 0.00 0.00 66 1014.9
20260503015005 53 270 0.0 0.0 0.00 0.00 0.00 65 1014.9
20260503014504 53 270 1.0 2.0 0.00 0.00 0.00 65 1014.9
20260503014004 54 270 1.0 2.0 0.00 0.00 0.00 64 1014.9
20260503013504 54 270 1.0 2.0 0.00 0.00 0.00 64 1014.8
20260503013005 55 270 1.0 2.0 0.00 0.00 0.00 63 1014.7
20260503012504 55 270 0.0 0.0 0.00 0.00 0.00 60 1014.7
20260503012004 55 270 0.0 0.0 0.00 0.00 0.00 61 1014.8
20260503011504 55 270 0.0 0.0 0.00 0.00 0.00 62 1014.9
20260503011007 55 270 0.0 1.0 0.00 0.00 0.00 62 1014.8
20260503010504 55 270 0.0 2.0 0.00 0.00 0.00 61 1014.9
20260503010004 56 270 0.0 1.0 0.00 0.00 0.00 59 1014.9
20260503005504 57 270 0.0 2.0 0.00 0.00 0.00 56 1014.9
20260503004506 56 270 0.0 0.0 0.00 0.00 0.00 57 1015.0
20260503004005 56 270 0.0 0.0 0.00 0.00 0.00 58 1015.0
20260503003504 56 270 0.0 1.0 0.00 0.00 0.00 56 1015.2
20260503003005 55 270 0.0 2.0 0.00 0.00 0.00 59 1015.1
20260503002518 56 270 1.0 2.0 0.00 0.00 0.00 59 1015.2
20260503002004 57 270 1.0 1.0 0.00 0.00 0.00 56 1015.2
20260503001505 57 270 0.0 0.0 0.00 0.00 0.00 57 1015.3
20260503000505 57 270 0.0 0.0 0.00 0.00 0.00 55 1015.3
20260502235504 58 270 0.0 2.0 0.00 0.00 0.00 55 1015.5
20260502235004 57 270 1.0 2.0 0.00 0.00 0.00 56 1015.4
20260502234504 57 270 0.0 0.0 0.00 0.00 0.00 58 1015.5
20260502233505 57 270 0.0 2.0 0.00 0.00 0.00 57 1015.5
20260502233005 57 270 0.0 2.0 0.00 0.00 0.00 57 1015.6
20260502232504 57 270 0.0 2.0 0.00 0.00 0.00 57 1015.6
20260502232005 56 270 1.0 1.0 0.00 0.00 0.00 58 1015.6
20260502231504 57 270 2.0 2.0 0.00 0.00 0.00 57 1015.7
20260502231005 57 270 2.0 2.0 0.00 0.00 0.00 55 1015.7
20260502230004 56 270 1.0 2.0 0.00 0.00 0.00 56 1015.8
20260502225504 59 270 2.0 3.0 0.00 0.00 0.00 50 1015.8
20260502225007 57 270 1.0 2.0 0.00 0.00 0.00 52 1015.8
20260502224504 58 271 2.0 3.0 0.00 0.00 0.00 53 1015.8
20260502224004 58 271 2.0 2.0 0.00 0.00 0.00 52 1015.8
20260502223504 57 271 2.0 2.0 0.00 0.00 0.00 56 1015.8
20260502223005 57 271 1.0 3.0 0.00 0.00 0.00 57 1015.8
20260502222503 59 271 2.0 3.0 0.00 0.00 0.00 52 1015.8
20260502222004 59 271 2.0 2.0 0.00 0.00 0.00 54 1015.9
20260502221504 59 271 2.0 2.0 0.00 0.00 0.00 53 1015.9
20260502220505 58 272 1.0 2.0 0.00 0.00 0.00 56 1016.0
20260502220004 58 272 2.0 2.0 0.00 0.00 0.00 57 1016.0
20260502215504 58 272 2.0 2.0 0.00 0.00 0.00 56 1016.0
20260502215004 58 271 2.0 3.0 0.00 0.00 0.00 57 1016.1
20260502214504 58 272 2.0 2.0 0.00 0.00 0.00 55 1016.0
20260502214004 58 272 2.0 2.0 0.00 0.00 0.00 56 1016.0
20260502213503 60 272 2.0 3.0 0.00 0.00 0.00 51 1016.0
20260502213005 59 271 2.0 2.0 0.00 0.00 0.00 53 1016.0
20260502212504 58 271 0.0 2.0 0.00 0.00 0.00 56 1016.0
20260502212004 59 271 0.0 2.0 0.00 0.00 0.00 53 1016.0
20260502211504 60 271 1.0 1.0 0.00 0.00 0.00 50 1016.0
20260502211019 59 271 0.0 1.0 0.00 0.00 0.00 52 1016.1
20260502210504 58 271 1.0 2.0 0.00 0.00 0.00 55 1016.1
20260502210004 60 271 1.0 2.0 0.00 0.00 0.00 52 1016.1
20260502205504 60 271 1.0 2.0 0.00 0.00 0.00 49 1016.1
20260502205004 59 271 0.0 0.0 0.00 0.00 0.00 50 1016.2
20260502204504 59 271 0.0 1.0 0.00 0.00 0.00 53 1016.2
20260502204004 60 271 1.0 2.0 0.00 0.00 0.00 51 1016.2
20260502203504 59 271 0.0 2.0 0.00 0.00 0.00 52 1016.2
20260502203005 59 272 2.0 2.0 0.00 0.00 0.00 52 1016.2
20260502202503 59 271 1.0 2.0 0.00 0.00 0.00 54 1016.2
20260502202004 58 271 1.0 2.0 0.00 0.00 0.00 56 1016.3
20260502201504 58 271 1.0 2.0 0.00 0.00 0.00 56 1016.3
20260502201004 58 272 2.0 3.0 0.00 0.00 0.00 55 1016.3
20260502200504 59 272 2.0 3.0 0.00 0.00 0.00 55 1016.4
20260502200004 59 271 2.0 3.0 0.00 0.00 0.00 55 1016.4
20260502195504 59 273 2.0 3.0 0.00 0.00 0.00 55 1016.4
20260502195004 59 271 1.0 2.0 0.00 0.00 0.00 55 1016.4
20260502194004 60 271 1.0 2.0 0.00 0.00 0.00 54 1016.4
20260502193504 60 271 0.0 2.0 0.00 0.00 0.00 54 1016.3
20260502192505 59 271 1.0 2.0 0.00 0.00 0.00 57 1016.3
20260502191504 61 271 2.0 2.0 0.00 0.00 0.00 53 1016.2
20260502191004 61 271 2.0 3.0 0.00 0.00 0.00 53 1016.1
20260502185003 61 274 2.0 3.0 0.00 0.00 0.00 54 1016.1
20260502184503 60 275 1.0 2.0 0.00 0.00 0.00 57 1016.1
20260502184004 60 275 2.0 3.0 0.00 0.00 0.00 59 1016.2
20260502183504 62 274 3.0 3.0 0.00 0.00 0.00 56 1016.3
20260502183005 64 269 3.0 3.0 0.00 0.00 0.00 50 1016.2
20260502182504 64 257 3.0 3.0 0.00 0.00 0.00 49 1016.2
20260502182005 65 261 3.0 6.0 0.00 0.00 0.00 47 1016.2
20260502180504 66 240 2.0 3.0 0.00 0.00 0.00 45 1016.1
20260502164004 72 174 1.0 2.0 0.00 0.00 0.00 38 1016.5
20260502163503 72 170 2.0 3.0 0.00 0.00 0.00 38 1016.6
20260502162004 73 146 2.0 6.0 0.00 0.00 0.00 36 1016.7
20260502161003 73 182 2.0 8.0 0.00 0.00 0.00 38 1016.9
20260502160504 73 125 3.0 7.0 0.00 0.00 0.00 37 1017.0
20260502152004 74 201 2.0 9.0 0.00 0.00 0.00 33 1017.5
20260502151504 74 133 2.0 6.0 0.00 0.00 0.00 37 1017.5
20260502151003 74 157 3.0 6.0 0.00 0.00 0.00 36 1017.6
20260502150506 74 145 4.0 9.0 0.00 0.00 0.00 34 1017.7
20260502130508 74 189 3.0 7.0 0.00 0.00 0.00 33 1019.1
20260502123010 74 181 2.0 7.0 0.00 0.00 0.00 39 1019.3
20260502122509 74 151 3.0 7.0 0.00 0.00 0.00 42 1019.3
20260502122008 73 108 2.0 3.0 0.00 0.00 0.00 41 1019.4
20260502121009 73 169 3.0 6.0 0.00 0.00 0.00 39 1019.5
20260502120508 74 113 4.0 7.0 0.00 0.00 0.00 39 1019.7
20260502115509 72 80 2.0 3.0 0.00 0.00 0.00 44 1019.8
20260502115012 72 160 3.0 6.0 0.00 0.00 0.00 42 1019.9
20260502114508 73 114 3.0 7.0 0.00 0.00 0.00 44 1019.9
20260502114008 73 126 2.0 8.0 0.00 0.00 0.00 43 1020.0
20260502113508 72 179 2.0 5.0 0.00 0.00 0.00 44 1020.1
20260502113010 72 176 2.0 6.0 0.00 0.00 0.00 45 1020.2
20260502112509 72 198 3.0 6.0 0.00 0.00 0.00 43 1020.3
20260502112012 72 137 3.0 7.0 0.00 0.00 0.00 44 1020.4
20260502111008 72 100 2.0 6.0 0.00 0.00 0.00 44 1020.5
20260502110508 71 123 5.0 8.0 0.00 0.00 0.00 42 1020.6
20260502110009 72 147 3.0 6.0 0.00 0.00 0.00 43 1020.6
20260502105008 71 197 2.0 6.0 0.00 0.00 0.00 42 1020.8
20260502104509 71 110 3.0 7.0 0.00 0.00 0.00 47 1020.8
20260502104009 70 133 2.0 6.0 0.00 0.00 0.00 48 1020.9
20260502103010 70 130 3.0 8.0 0.00 0.00 0.00 47 1021.0
20260502102509 70 81 2.0 6.0 0.00 0.00 0.00 45 1021.1
20260502102009 70 95 3.0 7.0 0.00 0.00 0.00 46 1021.3
20260502101509 70 134 3.0 6.0 0.00 0.00 0.00 47 1021.3
20260502101008 69 53 2.0 3.0 0.00 0.00 0.00 48 1021.3
20260502091508 67 112 1.0 5.0 0.00 0.00 0.00 53 1021.6
20260502090508 66 125 2.0 3.0 0.00 0.00 0.00 53 1021.7
20260502071509 57 153 2.0 5.0 0.00 0.00 0.00 64 1022.3
20260502071008 57 114 1.0 3.0 0.00 0.00 0.00 63 1022.4
20260502070509 57 121 2.0 3.0 0.00 0.00 0.00 66 1022.4
20260502070009 56 137 1.0 6.0 0.00 0.00 0.00 66 1022.5
20260502065509 56 144 1.0 3.0 0.00 0.00 0.00 66 1022.5
20260502065009 55 152 1.0 3.0 0.00 0.00 0.00 66 1022.6
20260502064509 55 167 1.0 3.0 0.00 0.00 0.00 66 1022.5
20260502064009 55 175 1.0 3.0 0.00 0.00 0.00 68 1022.6
20260502063509 54 183 1.0 1.0 0.00 0.00 0.00 67 1022.6
20260502062509 54 183 1.0 2.0 0.00 0.00 0.00 66 1022.6
20260502062009 54 198 1.0 2.0 0.00 0.00 0.00 67 1022.6
20260502061509 53 199 1.0 2.0 0.00 0.00 0.00 66 1022.7
20260502061009 53 201 0.0 2.0 0.00 0.00 0.00 67 1022.7
20260502060508 53 202 0.0 1.0 0.00 0.00 0.00 66 1022.7
20260502060009 52 202 0.0 2.0 0.00 0.00 0.00 65 1022.6
20260502055509 52 204 0.0 2.0 0.00 0.00 0.00 66 1022.6
20260502055009 52 204 0.0 1.0 0.00 0.00 0.00 66 1022.7
20260502054508 51 205 0.0 1.0 0.00 0.00 0.00 67 1022.7
20260502054008 51 205 0.0 0.0 0.00 0.00 0.00 68 1022.7
20260502053509 50 206 0.0 0.0 0.00 0.00 0.00 69 1022.6
20260502053010 50 205 0.0 1.0 0.00 0.00 0.00 68 1022.7
20260502052509 50 206 1.0 2.0 0.00 0.00 0.00 69 1022.7